Newark, NJ

8:24 AM EDT on October 23, 2019 (GMT -0400)
Newark International

Weather History for KEWR - May, 2019

Change the Weather History Date:

Wednesday, May 8, 2019

  Actual Average Record
Temperature  
Mean Temperature 64 °F 60 °F  
Max Temperature 71 °F 70 °F 92 °F (2000)
Min Temperature 56 °F 51 °F 35 °F (1947)
Degree Days  
Heating Degree Days 1 6  
Month to date heating degree days 40 54  
Since 1 July heating degree days 4634 4774  
Cooling Degree Days 0 1  
Month to date cooling degree days 0 8  
Year to date cooling degree days 15 20  
Growing Degree Days 13 (Base 50)    
Moisture  
Dew Point 50 °F    
Average Humidity 71    
Maximum Humidity 97    
Minimum Humidity 44    
Precipitation  
Precipitation 0.00 in 0.13 in 1.15 in (2013)
Month to date precipitation 1.94 0.99  
Year to date precipitation 17.59 15.79  
Snow  
Snow 0.00 in 0.00 in 0.00 in (2002)
Month to date snowfall 0.0 0.0  
Since 1 July snowfall 22.0 28.5  
Snow Depth 0.00 in    
Sea Level Pressure  
Sea Level Pressure 30.20 in    
Wind  
Wind Speed 8 mph (ENE)    
Max Wind Speed 18 mph    
Max Gust Speed 22 mph    
Visibility 10 miles    
Events      
T = Trace of Precipitation, MM = Missing Value Source: NWS Daily Summary

Daily Weather History Graph

Daily Weather History Graph

Search for Another Location

Airport or City:

Astronomy

May. 08, 2019 Rise Set
Actual Time 5:47 AM EDT 7:59 PM EDT
Civil Twilight 5:16 AM EDT 8:30 PM EDT
Nautical Twilight 4:39 AM EDT 9:07 PM EDT
Astronomical Twilight 3:58 AM EDT 9:48 PM EDT
Moon 8:41 AM EDT (5/8) 11:58 PM EDT (5/8)
Length of Visible Light 15h 13m
Length of Day
14h 12m
Waxing Crescent, 15% of the Moon is Illuminated
May 8
Waxing Crescent
May 11
First Quarter
May 18
Full
May 26
Last Quarter
Jun 3
New

Hourly Weather History & Observations

Time (EDT) Temp. Dew Point Humidity Pressure Visibility Wind Dir Wind Speed Gust Speed Precip Events Conditions
12:51 AM 60.1 °F 57.0 °F 90% 30.14 in 10.0 mi North 5.8 mph - N/A   Scattered Clouds
1:34 AM 61.0 °F 57.9 °F 90% 30.15 in 10.0 mi NNE 8.1 mph - N/A   Overcast
1:51 AM 61.0 °F 59.0 °F 93% 30.15 in 10.0 mi North 9.2 mph - N/A   Overcast
2:03 AM 61.0 °F 57.9 °F 90% 30.15 in 10.0 mi NNE 6.9 mph - N/A   Overcast
2:51 AM 60.1 °F 57.0 °F 90% 30.14 in 10.0 mi NNE 6.9 mph - N/A   Overcast
3:51 AM 59.0 °F 55.0 °F 87% 30.16 in 10.0 mi NNE 11.5 mph - N/A   Overcast
4:51 AM 57.9 °F 52.0 °F 81% 30.17 in 10.0 mi NNE 8.1 mph - N/A   Overcast
5:51 AM 57.9 °F 51.1 °F 78% 30.18 in 10.0 mi NE 9.2 mph - N/A   Mostly Cloudy
7:51 AM 57.9 °F 46.9 °F 67% 30.21 in 10.0 mi NNE 15.0 mph - N/A   Mostly Cloudy
8:51 AM 60.1 °F 48.0 °F 64% 30.22 in 10.0 mi NNE 12.7 mph - N/A   Mostly Cloudy
9:51 AM 61.0 °F 48.9 °F 64% 30.24 in 10.0 mi NNE 12.7 mph - N/A   Mostly Cloudy
10:51 AM 64.0 °F 48.9 °F 58% 30.25 in 10.0 mi NNE 9.2 mph - N/A   Mostly Cloudy
11:51 AM 66.0 °F 48.0 °F 52% 30.24 in 10.0 mi Variable 3.5 mph - N/A   Mostly Cloudy
1:51 PM 69.1 °F 46.0 °F 44% 30.20 in 10.0 mi Variable 5.8 mph - N/A   Mostly Cloudy
2:51 PM 70.0 °F 46.9 °F 44% 30.19 in 10.0 mi Calm Calm - N/A   Scattered Clouds
3:51 PM 66.9 °F 46.9 °F 49% 30.19 in 10.0 mi SE 9.2 mph 19.6 mph N/A   Scattered Clouds
4:51 PM 64.9 °F 48.0 °F 54% 30.19 in 10.0 mi SE 8.1 mph 16.1 mph N/A   Scattered Clouds
5:51 PM 63.0 °F 46.9 °F 56% 30.19 in 10.0 mi SE 9.2 mph - N/A   Scattered Clouds
6:51 PM 62.1 °F 46.0 °F 56% 30.19 in 10.0 mi SSE 8.1 mph - N/A   Scattered Clouds
7:51 PM 61.0 °F 46.9 °F 60% 30.20 in 10.0 mi SE 5.8 mph - N/A   Scattered Clouds
8:51 PM 60.1 °F 48.0 °F 64% 30.23 in 10.0 mi ESE 4.6 mph - N/A   Scattered Clouds
9:51 PM 59.0 °F 48.9 °F 69% 30.25 in 10.0 mi East 3.5 mph - N/A   Mostly Cloudy
10:51 PM 59.0 °F 48.9 °F 69% 30.26 in 10.0 mi ESE 3.5 mph - N/A   Mostly Cloudy
11:51 PM 57.9 °F 50.0 °F 75% 30.27 in 10.0 mi ENE 3.5 mph - N/A   Mostly Cloudy